Погода в Буяге

Погода в Буяге : погода сейчас, прогноз погоды и архив. Всё, что Вы хотите узнать о погоде в Буяге!

Поиск расширенной информации на нашем сайте:

Полезная информация: Содержательный информационный сайт геологии Земли http://www.geologam.ru/

Другие новости

Новости СМИ2

Главная страница сайта

Новости сайта

02.10.2013

Напоминаем, что на нашем новом сайте вы можете получить высокодетализированные прогнозы погоды по пунктам России, СНГ и мира (включающие важные для авиации метеовеличины, такие как направление и скорость ветра, видимость, явления погоды, количество и форма облачности, нижняя и верхняя граница облачности), а также ознакомиться с разнообразными материалами по авиационной метеорологии и подборкой полезных ссылок на эту тему.

Сайт Метеоцентр.Азия посвящён разработке технологий оптимизации авиаметеорологического обслуживания, включая проектирование и перспективное создание нескольких автоматизированных авиаметеорологических систем:
- система выпуска высокодетальных прогностических карт явлений погоды для нижнего воздушного пространства по России и ближнему зарубежью;
- система верификации прогнозов TAF (выпускаемых синоптиками официальных АМСГ РФ и ближнего зарубежья) и AUTOTAF (выпускаемых сайтом Метеоцентр.Азия) - выявление ошибок, онлайн-сопоставление с фактической погодой METAR, автоматическое внесение коррективов в прогнозы при резком отклонении фактической погоды от прогноза, подсчёт оправдываемости прогнозов по элементам и в целом;
- система обработки, анализа и отображения авиаметеорологической информации для применения провайдерами метеорологической информации.

Рекомендуем: Вшэ в праге высшая школа экономики прага.

Погода в Буяге - сегодня

Время (UTC), дата Ветер
(°,м/с) 
Видим.   Явления Облачность Т
(°С)
Тd
(°С)
f(%) Тe
(°С)
Pmin
(гПа)
dP
(гПа)
Po
(мм)
O2
(г/м3)
Тmin Tmax R s Состояние
почвы
18 23.05.17 тихо ()   20000 м    ясно 
-2.2 -2.2 100 -2  1011.5  0.7  733  298           
21 23.05.17 320 (СЗ) 20000 м    ясно 
+0.7 -0.7 90 +1  1013.1  1.9  734  295           
00 24.05.17 140 (ЮВ) 20000 м    1/0 верхняя 
[Ci fib]
+9.1 +1.6 59 +10  1009.9  -2  732  285  -2.5        влажная 
03 24.05.17 230 (ЮЗ) 20000 м    10/0 верхняя 
[Cs]
+15.8 +0.5 35 +16  1005.7  -3.4  730  278           
06 24.05.17 200 (Ю) 20000 м    10/0 средняя 
[As trans]
+18.5 +0.7 30 +19  1002.3  -3  728  274           
09 24.05.17 230 (ЮЗ) 8-14  20000 м    10/0 средняя 
[As trans]
+17.6 -0.6 29 +17  1002  -1.3  727  275           
12 24.05.17 230 (ЮЗ) 20000 м  слаб. дождь  10/0 средняя 
[As op]
+8.1 +5 81 +9  1003.3  1.2  728  284    +19.4  0.8     
15 24.05.17 тихо ()   20000 м  {дождь}  10/0 средняя 
[As op]
+5.8 +3.3 84 +6  1002.8  -0.7  727  286           
18 24.05.17 тихо ()   20000 м  {дождь}  10/0 средняя 
[As op]
+3.9 +2.4 90 +4  1002.6  -0.4  727  288           
21 24.05.17 тихо ()   20000 м    10/0 средняя 
[As op]
+6.3 +5.6 95 +6  1000.8  -1.5  726  285           
00 25.05.17 тихо ()   20000 м  слаб. дождь  10/0 средняя 
[As op]
+9 +9 100 +9  998.5  -1.8  739  287  +3.6      влажная 
03 25.05.17 тихо ()   20000 м  {дождь}  10/0 средняя 
[As op]
+8.7 +8.7 100 +9  997.6  -0.9  724  281           
06 25.05.17 тихо ()   20000 м  слаб. дождь  10/0 средняя 
[As op]
+9.1 +9.1 100 +10  998.5  0.7  724  281           
09 25.05.17 тихо ()   20000 м  {дождь}  10/8 1000 м средняя 
[Sc|As op]
+9.9 +9.9 100 +12  1000.4  1.9  726  280           
12 25.05.17 тихо ()   20000 м  {дождь}  3/0 верхняя 
[Ci fib]
+9.3 +9.3 100 +10  1002.2  1.8  727  282    +10.1     
15 25.05.17 тихо ()   20000 м    ясно 
+7.1 +7.1 100 +7  1004.3  1.7  728  285           
18 25.05.17 тихо ()   20000 м    ясно 
+5.5 +5.5 100 +6  1005.6  1.1  729  287           
21 25.05.17 тихо ()   0200 м  туман  ?/?  
+1.7 +1.7 100 +2  1006  -0.2  729  292           
00 26.05.17 тихо ()   1000 м    ?/?  
[Sc|Ac lent|Ci fib]
+5.2 +5 99 +5  1004.7  -0.8  728  287  +0.8        влажная 
03 26.05.17 090 (В) 20000 м  {туман}  8/4 600 м верхняя 
[Cu Sc|Ci fib]
+14.6 +5.8 55 +15  1001.1  -2.3  727  277           
06 26.05.17 тихо ()   20000 м  {туман}  10/3 1000 м средняя 
[Sc|Ac As]
+18.4 +7.9 50 +18  998.6  -2.1  725  272           
09 26.05.17 320 (СЗ) 20000 м  в посл. час дождь  10/8 1000 м средняя 
[Sc|As op]
+15.3 +12.2 82 +20  997.9  -0.9  724  274           
12 26.05.17 230 (ЮЗ) 20000 м  {дождь}  10/6 600 м средняя 
[St|As op]
+12.7 +12 96 +18  1000.4  2.1  726  277    +19.2     
15 26.05.17 тихо ()   20000 м    10/6 600 м кучево-дожд., средняя 
[Cb cap|Ac As]
+10.6 +10.6 100 +13  1001.9  1.2  727  280           
18 26.05.17 тихо ()   20000 м    10/5 600 м кучево-дожд., средняя 
[Cb cap|Ac As]
+9.3 +9.3 100 +10  1002.8  0.7  727  282           
Время (UTC), дата Ветер
(°,м/с) 
Видим.   Явления Облачность Т
(°С)
Тd
(°С)
f(%) Тe
(°С)
Pmin
(гПа)
dP
(гПа)
Po
(мм)
O2
(г/м3)
Тmin Tmax R s Состояние
почвы

Для получения пояснительной информации подведите курсор к названию столбца.

ПОГОДА в Буяге - архив

Всё, что Вы хотите узнать о погоде в Буяге - удобно и подробно!

Выберите нужную дату (начиная с 1 января 2015* года) и нажмите кнопку "Найти".
Будут отображены архивные сводки погоды по пункту Буяга, начиная с указанной даты.


Отображать данные в формате CSV (для использования в таблицах Excel)


Внимание! Наш архив погоды предназначен исключительно для личного некоммерческого использования в познавательных целях. Если Вам необходимы официальные справки о состоянии погоды (для производственных, юридических, коммерческих и т.п. целей), обращайтесь в органы Росгидромета.

*Примечание: данная дата относится к архиву по метеостанциям СССР (Россия, СНГ, Балтия).
Архив по метеостанциям Зарубежной Европы и Азии (кроме Китая) хранится 10 дней, по другим регионам земного шара (Китай, Африка, Америка, Австралия, Океания) - 1 день.

Буяга - район местоположения метеостанции


Название, широта, долгота, высота метеостанции:
Буяга 59.6°ш. 127.2°д. 278 м над ур. моря [Российская Федерация]

Дополнительная информация

В oтличие oт бoльшинства пoгoдных сайтoв мы публикуем пoдрoбную метеoинфoрмацию в детальнoм прoфессиoнальнoм фoрмате.

Характеристики температуры и влажнoсти вoздуха измеряются на высoте 2 м в тени вдали oт зданий и деревьев.
Скoрoсть ветра измеряется на высoте 10 м (на урoвне рoста челoвека скoрoсть ветра ниже в 1.5-2 раза). Если метеoстанция нахoдится в гoрoде или в лесу, тo скoрoсть ветра занижена на 2-4 м/с пo сравнению с oткрытым местoм. Скoрoсть ветра над акватoриями крупных рек и oзёр, а также на вершинах хoлмoв на 2-5 м/с выше, чем в oбычных услoвиях.
Атмoсфернoе давление в разных тoчках местнoсти мoжет значительнo oтличаться oт давления на метеoстанции, в зависимoсти oт услoвий рельефа (при пoдъёме на 10 м давление пoнижается примернo на 1 мм рт.ст.).